TimeCST,TemperatureF,Dew PointF,Humidity,Sea Level PressureIn,VisibilityMPH,Wind Direction,Wind SpeedMPH,Gust SpeedMPH,PrecipitationIn,Events,Conditions,WindDirDegrees,DateUTC
12:15 AM,18.1,12.7,79,30.78,10.0,NNW,10.4,-,N/A,,Clear,340,2013-11-12 06:15:00
12:35 AM,17.6,12.2,79,30.79,10.0,NNW,9.2,-,N/A,,Clear,340,2013-11-12 06:35:00
12:55 AM,17.6,12.0,79,30.78,10.0,NNW,10.4,-,N/A,,Clear,340,2013-11-12 06:55:00
1:15 AM,16.7,11.3,79,30.79,10.0,NNW,9.2,-,N/A,,Clear,340,2013-11-12 07:15:00
1:35 AM,16.3,11.7,82,30.80,10.0,NNW,8.1,-,N/A,,Clear,340,2013-11-12 07:35:00
1:55 AM,16.3,11.3,81,30.80,10.0,NNW,10.4,-,N/A,,Clear,340,2013-11-12 07:55:00
2:15 AM,15.8,11.3,82,30.81,10.0,NNW,9.2,-,N/A,,Clear,340,2013-11-12 08:15:00
2:35 AM,15.1,10.9,84,30.81,10.0,NNW,5.8,-,N/A,,Clear,340,2013-11-12 08:35:00
2:55 AM,14.0,10.4,86,30.81,10.0,NNW,4.6,-,N/A,,Clear,330,2013-11-12 08:55:00
3:15 AM,12.7,9.3,86,30.81,10.0,NW,4.6,-,N/A,,Clear,310,2013-11-12 09:15:00
3:35 AM,13.3,9.5,85,30.81,10.0,NNW,4.6,-,N/A,,Clear,330,2013-11-12 09:35:00
3:55 AM,12.2,8.6,85,30.80,10.0,NW,5.8,-,N/A,,Clear,310,2013-11-12 09:55:00
4:15 AM,12.7,9.1,86,30.80,10.0,NW,5.8,-,N/A,,Clear,310,2013-11-12 10:15:00
4:35 AM,12.9,9.3,86,30.81,10.0,NW,6.9,-,N/A,,Clear,310,2013-11-12 10:35:00
4:55 AM,12.7,9.0,85,30.82,10.0,NW,5.8,-,N/A,,Clear,320,2013-11-12 10:55:00
5:15 AM,12.2,8.2,84,30.83,10.0,NW,6.9,-,N/A,,Clear,320,2013-11-12 11:15:00
5:35 AM,11.8,8.2,85,30.83,10.0,NW,6.9,-,N/A,,Clear,310,2013-11-12 11:35:00
5:55 AM,12.2,8.4,85,30.84,10.0,NW,6.9,-,N/A,,Clear,320,2013-11-12 11:55:00
6:15 AM,12.2,8.2,84,30.85,10.0,NW,8.1,-,N/A,,Clear,320,2013-11-12 12:15:00
6:35 AM,11.8,7.7,83,30.86,10.0,NW,5.8,-,N/A,,Clear,320,2013-11-12 12:35:00
6:55 AM,11.8,7.7,83,30.87,10.0,NW,5.8,-,N/A,,Clear,320,2013-11-12 12:55:00
7:15 AM,11.5,7.7,85,30.87,10.0,NW,5.8,-,N/A,,Clear,310,2013-11-12 13:15:00
7:35 AM,13.1,8.8,83,30.87,10.0,WNW,3.5,-,N/A,,Clear,300,2013-11-12 13:35:00
7:55 AM,14.4,9.9,82,30.87,10.0,NW,3.5,-,N/A,,Clear,310,2013-11-12 13:55:00
8:15 AM,15.1,10.2,81,30.87,10.0,WNW,4.6,-,N/A,,Clear,300,2013-11-12 14:15:00
8:35 AM,16.2,10.4,78,30.87,10.0,NW,3.5,-,N/A,,Clear,320,2013-11-12 14:35:00
8:55 AM,17.1,10.8,76,30.88,10.0,Calm,Calm,-,N/A,,Clear,0,2013-11-12 14:55:00
9:15 AM,18.0,10.8,73,30.87,10.0,Calm,Calm,-,N/A,,Clear,0,2013-11-12 15:15:00
9:35 AM,19.0,10.4,69,30.87,10.0,Calm,Calm,-,N/A,,Clear,0,2013-11-12 15:35:00
9:55 AM,19.8,10.8,68,30.87,10.0,Calm,Calm,-,N/A,,Clear,0,2013-11-12 15:55:00
10:15 AM,20.1,10.8,67,30.86,10.0,Calm,Calm,-,N/A,,Clear,0,2013-11-12 16:15:00
10:35 AM,21.9,11.5,64,30.86,10.0,West,3.5,-,N/A,,Clear,270,2013-11-12 16:35:00
10:55 AM,23.2,10.2,58,30.85,10.0,West,5.8,-,N/A,,Clear,270,2013-11-12 16:55:00
11:15 AM,23.7,10.4,57,30.84,10.0,West,4.6,-,N/A,,Clear,280,2013-11-12 17:15:00
11:35 AM,25.2,9.9,52,30.83,10.0,WSW,4.6,-,N/A,,Clear,250,2013-11-12 17:35:00
11:55 AM,26.4,9.5,49,30.82,10.0,West,3.5,-,N/A,,Clear,270,2013-11-12 17:55:00
12:15 PM,27.5,9.9,48,30.80,10.0,SW,3.5,-,N/A,,Clear,220,2013-11-12 18:15:00
12:35 PM,29.5,8.4,41,30.78,10.0,SW,9.2,-,N/A,,Clear,230,2013-11-12 18:35:00
12:55 PM,30.0,8.1,40,30.77,10.0,WSW,6.9,-,N/A,,Clear,240,2013-11-12 18:55:00
1:15 PM,31.3,7.5,37,30.76,10.0,SW,6.9,-,N/A,,Clear,220,2013-11-12 19:15:00
1:35 PM,32.0,6.4,34,30.75,10.0,Calm,Calm,-,N/A,,Clear,0,2013-11-12 19:35:00
1:55 PM,32.5,6.6,34,30.74,10.0,SW,6.9,-,N/A,,Clear,220,2013-11-12 19:55:00
2:15 PM,33.6,6.1,32,30.73,10.0,SW,5.8,-,N/A,,Clear,220,2013-11-12 20:15:00
2:35 PM,34.2,5.7,30,30.71,10.0,WSW,6.9,-,N/A,,Clear,250,2013-11-12 20:35:00
2:55 PM,34.9,4.6,28,30.70,10.0,WSW,5.8,-,N/A,,Clear,240,2013-11-12 20:55:00
3:15 PM,34.9,5.0,29,30.69,10.0,SW,8.1,-,N/A,,Clear,230,2013-11-12 21:15:00
3:35 PM,35.1,4.5,28,30.69,10.0,SW,6.9,-,N/A,,Clear,220,2013-11-12 21:35:00
3:55 PM,35.1,4.1,27,30.68,10.0,SSW,8.1,-,N/A,,Clear,210,2013-11-12 21:55:00
4:15 PM,34.7,4.5,28,30.67,10.0,SSW,5.8,-,N/A,,Clear,200,2013-11-12 22:15:00
4:35 PM,33.8,5.5,31,30.66,10.0,SSW,9.2,-,N/A,,Clear,200,2013-11-12 22:35:00
4:55 PM,32.2,6.8,34,30.65,10.0,South,5.8,-,N/A,,Clear,180,2013-11-12 22:55:00
5:15 PM,30.0,8.4,40,30.64,10.0,South,5.8,-,N/A,,Clear,180,2013-11-12 23:15:00
5:35 PM,27.5,8.6,45,30.64,10.0,South,4.6,-,N/A,,Clear,180,2013-11-12 23:35:00
5:55 PM,25.7,9.7,51,30.63,10.0,South,5.8,-,N/A,,Clear,170,2013-11-12 23:55:00
6:15 PM,24.8,10.4,54,30.63,10.0,South,8.1,-,N/A,,Clear,170,2013-11-13 00:15:00
6:35 PM,24.1,11.1,58,30.62,10.0,South,8.1,-,N/A,,Clear,170,2013-11-13 00:35:00
6:55 PM,23.7,11.8,61,30.63,10.0,South,5.8,-,N/A,,Clear,170,2013-11-13 00:55:00
7:15 PM,24.8,10.2,54,30.63,10.0,SSE,5.8,-,N/A,,Clear,160,2013-11-13 01:15:00
7:35 PM,23.0,10.9,60,30.64,10.0,SSE,4.6,-,N/A,,Clear,160,2013-11-13 01:35:00
7:55 PM,21.9,12.0,66,30.63,10.0,South,6.9,-,N/A,,Clear,180,2013-11-13 01:55:00
8:15 PM,22.8,11.5,62,30.63,10.0,South,6.9,-,N/A,,Clear,180,2013-11-13 02:15:00
8:35 PM,22.3,12.0,65,30.63,10.0,South,6.9,-,N/A,,Clear,180,2013-11-13 02:35:00
8:55 PM,22.1,13.1,68,30.63,10.0,South,5.8,-,N/A,,Clear,180,2013-11-13 02:55:00
9:15 PM,23.5,10.4,57,30.63,10.0,South,4.6,-,N/A,,Clear,190,2013-11-13 03:15:00
9:35 PM,21.9,12.2,66,30.61,10.0,South,9.2,-,N/A,,Clear,180,2013-11-13 03:35:00
9:55 PM,22.1,13.1,68,30.59,10.0,South,10.4,-,N/A,,Clear,170,2013-11-13 03:55:00
10:15 PM,24.1,12.7,62,30.58,10.0,South,10.4,-,N/A,,Clear,190,2013-11-13 04:15:00
10:35 PM,25.9,12.2,56,30.59,10.0,South,8.1,-,N/A,,Clear,190,2013-11-13 04:35:00
10:55 PM,25.0,12.2,58,30.58,10.0,South,6.9,-,N/A,,Clear,190,2013-11-13 04:55:00
11:15 PM,24.4,12.7,61,30.55,10.0,South,10.4,-,N/A,,Clear,180,2013-11-13 05:15:00
11:35 PM,25.0,12.2,58,30.54,10.0,South,9.2,-,N/A,,Clear,180,2013-11-13 05:35:00
11:55 PM,25.5,12.4,58,30.53,10.0,SSW,9.2,-,N/A,,Clear,200,2013-11-13 05:55:00